Regional Weather Roundup
Issued by NWS

Home | Current Version | Previous Version | Text Only | Print | Product List | Glossary Off
Versions: 1 2 3 4 5 6 7 8 9 10 11 12 13 14 15 16 17 18 19 20 21 22 23 24 25 26 27 28 29 30 31 32 33 34 35 36 37 38 39 40 41 42 43 44 45 46 47 48 49 50

000
ASUS43 KFSD 222202
RWRSD

WEATHER ROUNDUP FOR SOUTH DAKOTA
NATIONAL WEATHER SERVICE SIOUX FALLS SD
400 PM CST MON DEC 22 2014

NOTE: "FAIR" INDICATES FEW OR NO CLOUDS BELOW 12,000 FEET WITH NO
SIGNIFICANT WEATHER AND/OR OBSTRUCTIONS TO VISIBILITY.


SDZ001>005-009-010-012>017-222300-
NORTHWEST AND NORTH CENTRAL SOUTH DAKOTA

CITY           SKY/WX    TMP DP  RH WIND       PRES   REMARKS
BUFFALO          N/A     28  23  81 NW28G36   29.54R WCI  13
FAITH            N/A     29  22  75 NW24G39   29.54R WCI  15
MOBRIDGE       HVY SNOW  31  29  92 N16       29.47R VSB 1/4 WCI  20
$$

SDZ012>016-024>037-041>051-057-063-072>074-222300-
SOUTHWEST AND SOUTH CENTRAL SOUTH DAKOTA

CITY           SKY/WX    TMP DP  RH WIND       PRES   REMARKS
RAPID CTY ARPT CLOUDY    38  23  55 NW43G54   29.52R
PIERRE         CLOUDY    32  29  88 NW20G31   29.47R WCI  20
CUSTER         CLOUDY    30  16  56 NW17G43   29.51S WCI  18
PHILIP         FLURRIES  33  30  88 NW29G38   29.52R WCI  19
PINE RIDGE     CLOUDY    41  20  43 N21G33    29.54R
WINNER         FLURRIES  35  32  88 NW17      29.47R WCI  25
$$

SDZ004>011-016>023-039-040-222300-
NORTHEAST SOUTH DAKOTA

CITY           SKY/WX    TMP DP  RH WIND       PRES   REMARKS
ABERDEEN       LGT RAIN  38  37  97 NE6       29.43R FOG
WATERTOWN      CLOUDY    36  35  96 S6        29.41R
SISSETON         N/A     36  36 100 SE15      29.45R
$$

SDZ017-020-022-023-036>040-048>070-222300-
SOUTHEAST SOUTH DAKOTA

CITY           SKY/WX    TMP DP  RH WIND       PRES   REMARKS
SIOUX FALLS    LGT RAIN  38  36  92 NW7       29.41R VSB 1/2
HURON          LGT SNOW  33  31  92 N6        29.44R FOG     WCI  28
MITCHELL       CLOUDY    36  34  92 NW6       29.44R
YANKTON        CLOUDY    37  36  93 NW10      29.44R
$$

ABBREVIATIONS USED IN REMARKS
   TC - TEMPERATURE IN CELSIUS
  WCI - WIND CHILL INDEX
   HX - HEAT INDEX
  VSB - VISIBILITY



USA.gov is the U.S. government's official web portal to all federal, state and local government web resources and services.